Location: Calvatone
(45.1167°N, 10.4333°E)
Time: 21:54:59
(UTC+00:00)

ATLAS CENTAUR R/B - Pass Details

Date: 28 January 2023
Orbit: 450 x 653 km, 64.7° (Epoch: 19 March)

Event Time Altitude Azimuth Distance (km) Brightness Sun altitude
Rises 17:33:00 0° 205° (SSW) 2,981 5.6 -13.0°
Reaches altitude 10° 17:35:21 10° 202° (SSW) 2,069 4.7 -13.4°
Maximum altitude 17:40:00 63° 122° (ESE) 729 1.7 -14.3°
Enters shadow 17:43:15 19° 45° (NE) 1,525 3.1 -14.8°
